[[{"header":{"parameterUnit":"m.s-1","parameterCategory":1,"la1":30.2991,"la2":30.254,"lo1":-89.0895,"lo2":-89.0444,"dy":0.0017,"dx":0.0017,"nx":28,"ny":28,"refTime":"2023-07-23T09:00:00:Z","depth":0,"parameterNumber":2,"parameterNumberName":"U-component_of_WINDS"},"data":[0,0,0,0,0,0,0,0,0,0,0,0,0,0,0,0,0,0,0,0,0,0,0,0,0,0,0,0,0,0,0,0,0,0,0,0,0,0,0,0,0,0,0,0,0,0,0,0,0,0,0,0,0,0,0,0,0,0,2.1539,2.154,0,2.1644,2.1645,2.1646,2.1668,2.1667,2.1666,2.1666,2.1772,2.1775,2.1779,0,0,0,0,0,0,0,0,0,0,0,0,0,2.136,2.1363,2.1539,2.1541,2.1542,2.1643,2.1645,2.1646,2.1668,2.1667,2.1666,2.1665,2.1771,2.1775,2.1779,0,0,0,0,0,0,0,0,0,0,0,0,0,2.1448,2.1364,2.1539,2.1565,2.1568,2.1643,2.1645,2.1647,2.1668,2.1667,2.1666,2.1665,2.1769,2.1775,2.178,2.1836,0,0,2.1796,2.1798,0,0,0,0,0,0,0,0,2.1443,2.1455,2.156,2.1563,2.1567,2.1642,2.1621,2.171,2.1669,2.163,2.1666,2.1664,2.1729,2.1738,2.176,2.1841,2.1845,2.1797,2.18,2.1802,2.1804,0,0,0,0,0,0,0,2.1437,2.1451,2.158,2.1561,2.1566,2.1572,2.1583,2.1638,2.1685,2.1634,2.1635,2.1647,2.1731,2.1755,2.1763,2.1847,2.1796,2.1801,2.1804,2.1806,2.198,2.1982,0,0,0,0,0,0,2.1426,2.1445,2.1577,2.1584,2.1501,2.1576,2.1589,2.1619,2.1685,2.1693,2.1648,2.1648,2.1746,2.1756,2.1767,2.1837,2.1802,2.1807,2.181,2.1979,2.1981,2.1982,0,0,0,0,0,0,2.1423,2.1438,2.1573,2.1515,2.1533,2.158,2.1614,2.1622,2.1645,2.1696,2.1704,2.1664,2.1746,2.1759,2.1819,2.1841,2.1809,2.1814,2.1977,2.1979,2.1981,2.1978,0,0,0,0,0,0,2.1417,2.1436,2.1458,2.1515,2.1536,2.1623,2.1616,2.1624,2.1654,2.1655,2.1712,2.1721,2.1746,2.1811,2.1824,2.1848,2.1818,2.1975,2.1978,2.1981,2.1976,2.198,2.1983,0,0,0,0,0,2.1411,2.1452,2.1459,2.1475,2.1563,2.1624,2.1636,2.1664,2.1656,2.1678,2.1711,2.1719,2.1837,2.1817,2.1832,2.1857,2.1974,2.1977,2.198,2.1975,2.1979,2.1983,0,0,0,0,0,0,2.1396,2.146,2.1468,2.153,2.1571,2.1628,2.1657,2.1668,2.1712,2.1711,2.1744,2.1757,2.1815,2.1842,2.1819,2.1916,2.1905,2.1911,2.1896,2.19,2.1903,2.1895,2.1823,0,0,0,0,0,2.14,2.1444,2.1498,2.1547,2.1567,2.1608,2.1636,2.1654,2.1699,2.1716,2.1754,2.1796,2.1843,2.1873,2.1919,2.1981,2.1994,2.2006,2.2009,2.2012,2.2016,2.2052,2.2058,2.1993,2.1993,2.1992,0,0,2.1408,2.1449,2.1474,2.1545,2.1579,2.1624,2.1623,2.167,2.1704,2.1724,2.1782,2.1811,2.1862,2.1923,2.1951,2.1947,2.2038,2.2016,2.2017,2.2021,2.2056,2.2062,2.2068,2.1995,2.1994,2.1994,0,0,2.1446,2.1481,2.1527,2.1561,2.1614,2.1641,2.1652,2.1708,2.1728,2.1787,2.1803,2.1844,2.1924,2.1959,2.1987,2.2041,2.205,2.2055,2.2071,2.2106,2.2111,2.2116,2.2135,2.2141,2.206,2.206,2.206,0,2.145,2.1518,2.1548,2.1596,2.1626,2.1647,2.1693,2.1725,2.179,2.1811,2.1806,2.1907,2.1942,2.2012,2.2025,2.2048,2.2062,2.2048,2.2108,2.2113,2.2118,2.2136,2.2144,2.206,2.206,2.206,2.206,0,2.1521,2.1568,2.1598,2.166,2.1695,2.1741,2.1779,2.181,2.1826,2.1854,2.1915,2.1958,2.2013,2.2032,2.2047,2.2104,2.21,2.2101,2.2091,2.2124,2.2142,2.2149,2.206,2.206,2.206,2.206,0,0,2.1551,2.163,2.1641,2.167,2.173,2.1767,2.1815,2.187,2.1896,2.1941,2.1982,2.205,2.2051,2.2083,2.2103,2.2134,2.2174,2.2131,2.2133,2.2137,2.224,2.2239,2.2247,2.2181,2.2182,2.2184,2.2236,0,2.1597,2.1682,2.1711,2.1783,2.1827,2.1848,2.189,2.1931,2.1959,2.2001,2.2032,2.208,2.2078,2.2098,2.2129,2.2162,2.2195,2.2159,2.222,2.2221,2.2206,2.2256,2.2255,2.2303,2.2243,2.2245,2.2246,0,2.1661,2.1707,2.1782,2.1838,2.1858,2.1895,2.1948,2.1988,2.2036,2.2054,2.2091,2.2109,2.216,2.2148,2.2219,2.2194,2.2221,2.2241,2.2244,2.225,2.2235,2.2264,2.2318,2.2325,2.2257,2.2256,2.2255,0,2.1676,2.1756,2.1812,2.1837,2.1903,2.1928,2.1957,2.2004,2.2036,2.2082,2.2103,2.2154,2.2183,2.2223,2.2254,2.2242,2.2323,2.2313,2.234,2.2339,2.2356,2.2354,2.2415,2.2373,2.2373,2.2373,2.2373,0,2.1723,2.1769,2.182,2.1854,2.1906,2.194,2.199,2.2021,2.2063,2.2103,2.2125,2.2163,2.2203,2.2246,2.2272,2.2328,2.234,2.2357,2.2363,2.2354,2.2352,2.2372,2.2369,2.2375,2.2375,2.2374,2.2374,0,2.1748,2.1784,2.1847,2.1905,2.192,2.1956,2.2006,2.2041,2.207,2.2121,2.2136,2.2182,2.2234,2.227,2.2337,2.2354,2.2415,2.2421,2.2398,2.2401,2.2426,2.2423,2.2502,2.2514,2.2464,2.2464,2.2465,0,2.1776,2.1812,2.1874,2.1903,2.1932,2.1978,2.201,2.2045,2.2078,2.2136,2.2164,2.2218,2.2263,2.2346,2.2385,2.2437,2.2444,2.2468,2.2452,2.2443,2.2445,2.2442,2.2446,2.247,2.2471,2.2471,2.2471,0,2.1822,2.1838,2.1884,2.1936,2.1974,2.2017,2.206,2.2083,2.2125,2.2161,2.2215,2.225,2.2319,2.2372,2.2428,2.2458,2.2472,2.2476,2.2485,2.2477,2.2463,2.2471,2.2405,2.2474,2.2474,2.2473,2.2473,2.2473,2.1849,2.1882,2.1931,2.1982,2.2018,2.2058,2.2093,2.2127,2.2173,2.2232,2.225,2.2306,2.2355,2.2431,2.2462,2.2507,2.2505,2.2518,2.2521,2.2524,2.2524,2.2456,2.2517,2.2517,2.2517,2.2517,2.2517,0,2.1896,2.1929,2.1975,2.2035,2.2075,2.2085,2.2133,2.2166,2.2215,2.2259,2.2303,2.2366,2.2418,2.2462,2.2517,2.2544,2.2552,2.2557,2.2555,2.2562,2.2523,2.2509,2.255,2.255,2.255,2.255,2.255,2.255,2.1925,2.1982,2.2004,2.2079,2.2112,2.2167,2.2194,2.2231,2.2267,2.2336,2.2379,2.2408,2.2452,2.251,2.2559,2.2571,2.259,2.2594,2.2607,2.2569,2.2565,2.2561,2.2549,2.2597,2.2597,2.2643,2.2643,2.2643]},{"header":{"parameterUnit":"m.s-1","parameterCategory":1,"la1":30.2991,"la2":30.254,"lo1":-89.0895,"lo2":-89.0444,"dy":0.0017,"dx":0.0017,"nx":28,"ny":28,"refTime":"2023-07-23T09:00:00:Z","depth":0,"parameterNumber":3,"parameterNumberName":"V-component_of_WINDS"},"data":[0,0,0,0,0,0,0,0,0,0,0,0,0,0,0,0,0,0,0,0,0,0,0,0,0,0,0,0,0,0,0,0,0,0,0,0,0,0,0,0,0,0,0,0,0,0,0,0,0,0,0,0,0,0,0,0,0,0,-1.109,-1.109,0,-1.108,-1.108,-1.108,-1.1065,-1.1065,-1.1064,-1.1064,-1.1053,-1.1053,-1.1053,0,0,0,0,0,0,0,0,0,0,0,0,0,-1.1098,-1.1097,-1.109,-1.109,-1.109,-1.108,-1.108,-1.108,-1.1065,-1.1065,-1.1064,-1.1064,-1.1053,-1.1053,-1.1053,0,0,0,0,0,0,0,0,0,0,0,0,0,-1.1092,-1.1097,-1.109,-1.1082,-1.1081,-1.108,-1.108,-1.108,-1.1065,-1.1065,-1.1064,-1.1064,-1.1053,-1.1053,-1.1053,-1.106,0,0,-1.1053,-1.1053,0,0,0,0,0,0,0,0,-1.1092,-1.1091,-1.1083,-1.1082,-1.1081,-1.1073,-1.1078,-1.1073,-1.1065,-1.1071,-1.1064,-1.1064,-1.106,-1.1059,-1.1058,-1.106,-1.1059,-1.1053,-1.1053,-1.1053,-1.1053,0,0,0,0,0,0,0,-1.1092,-1.1092,-1.1086,-1.1083,-1.1082,-1.1078,-1.1077,-1.1077,-1.1068,-1.107,-1.1069,-1.1068,-1.1059,-1.1058,-1.1058,-1.1059,-1.1053,-1.1053,-1.1053,-1.1052,-1.1066,-1.1067,0,0,0,0,0,0,-1.1094,-1.1092,-1.1087,-1.1086,-1.1086,-1.1078,-1.1077,-1.1076,-1.1068,-1.1066,-1.1069,-1.1068,-1.1059,-1.1058,-1.1057,-1.1066,-1.1053,-1.1052,-1.1052,-1.1066,-1.1066,-1.1067,0,0,0,0,0,0,-1.1094,-1.1094,-1.1087,-1.1089,-1.1088,-1.1079,-1.1078,-1.1076,-1.1075,-1.1066,-1.1065,-1.1069,-1.1058,-1.1058,-1.106,-1.1065,-1.1052,-1.1052,-1.1065,-1.1066,-1.1066,-1.1082,0,0,0,0,0,0,-1.1095,-1.1094,-1.1097,-1.1089,-1.1088,-1.109,-1.1078,-1.1076,-1.1075,-1.1074,-1.1066,-1.1065,-1.1058,-1.106,-1.106,-1.1065,-1.1052,-1.1065,-1.1066,-1.1066,-1.1081,-1.1083,-1.1085,0,0,0,0,0,-1.1095,-1.1101,-1.1097,-1.1096,-1.1091,-1.109,-1.1089,-1.1081,-1.1076,-1.1078,-1.1073,-1.1065,-1.1065,-1.106,-1.106,-1.1065,-1.1064,-1.1065,-1.1066,-1.108,-1.1083,-1.1085,0,0,0,0,0,0,-1.1109,-1.11,-1.1095,-1.1099,-1.1095,-1.1087,-1.109,-1.1084,-1.1082,-1.1081,-1.1071,-1.1069,-1.1073,-1.1069,-1.1064,-1.1072,-1.1063,-1.1064,-1.1074,-1.1076,-1.1078,-1.1079,-1.1052,0,0,0,0,0,-1.1113,-1.1113,-1.1105,-1.1109,-1.1108,-1.11,-1.1099,-1.1093,-1.1089,-1.1087,-1.1082,-1.1078,-1.1077,-1.1076,-1.1075,-1.108,-1.1079,-1.1084,-1.1086,-1.1087,-1.1088,-1.1091,-1.1094,-1.107,-1.107,-1.107,0,0,-1.1121,-1.1116,-1.1116,-1.1112,-1.1109,-1.1109,-1.1098,-1.1099,-1.1099,-1.1087,-1.1089,-1.1085,-1.108,-1.1084,-1.1086,-1.1081,-1.1095,-1.1089,-1.109,-1.109,-1.1093,-1.1095,-1.1097,-1.107,-1.107,-1.107,0,0,-1.1135,-1.1131,-1.1134,-1.1131,-1.1126,-1.1121,-1.1122,-1.1115,-1.1111,-1.1113,-1.1104,-1.1104,-1.1103,-1.11,-1.1098,-1.1112,-1.1105,-1.1111,-1.1122,-1.1125,-1.1127,-1.1128,-1.1134,-1.1136,-1.1112,-1.1112,-1.1112,0,-1.1145,-1.1146,-1.1137,-1.1139,-1.1137,-1.1126,-1.113,-1.1127,-1.1122,-1.1121,-1.1116,-1.1114,-1.111,-1.1114,-1.1117,-1.1116,-1.1117,-1.1112,-1.1127,-1.1129,-1.113,-1.1135,-1.1137,-1.1113,-1.1113,-1.1113,-1.1113,0,-1.1158,-1.1159,-1.1162,-1.1158,-1.1157,-1.1159,-1.1151,-1.1151,-1.1145,-1.1141,-1.1143,-1.1137,-1.1135,-1.1135,-1.113,-1.1138,-1.1135,-1.1129,-1.112,-1.1133,-1.1138,-1.114,-1.1114,-1.1114,-1.1114,-1.1114,0,0,-1.1182,-1.1173,-1.1174,-1.1172,-1.1166,-1.1166,-1.1168,-1.1166,-1.1166,-1.1163,-1.1165,-1.1164,-1.1158,-1.1156,-1.115,-1.1153,-1.1164,-1.1146,-1.1146,-1.115,-1.1174,-1.1179,-1.1182,-1.116,-1.116,-1.116,-1.1175,0,-1.1195,-1.1198,-1.1191,-1.1196,-1.1196,-1.1186,-1.1188,-1.1185,-1.118,-1.118,-1.1175,-1.1175,-1.1167,-1.1166,-1.1168,-1.1163,-1.1169,-1.1161,-1.1162,-1.1162,-1.1164,-1.1184,-1.1189,-1.1203,-1.1176,-1.1177,-1.1177,0,-1.1211,-1.1209,-1.1214,-1.1208,-1.1208,-1.121,-1.1208,-1.1207,-1.1203,-1.12,-1.1198,-1.1191,-1.1193,-1.1184,-1.1187,-1.1182,-1.1182,-1.1179,-1.1179,-1.118,-1.117,-1.1185,-1.1207,-1.121,-1.1179,-1.1179,-1.1179,0,-1.1228,-1.1226,-1.1229,-1.1228,-1.1221,-1.1223,-1.122,-1.1215,-1.1214,-1.1212,-1.1212,-1.121,-1.1209,-1.1208,-1.12,-1.1195,-1.1204,-1.1195,-1.1202,-1.1202,-1.1204,-1.1204,-1.1227,-1.1203,-1.1203,-1.1203,-1.1203,0,-1.1244,-1.1248,-1.1237,-1.1239,-1.1243,-1.1234,-1.1239,-1.1235,-1.1231,-1.1232,-1.1223,-1.1224,-1.1215,-1.1215,-1.1209,-1.1213,-1.1212,-1.121,-1.1208,-1.1211,-1.1211,-1.1211,-1.121,-1.1204,-1.1204,-1.1204,-1.1203,0,-1.1264,-1.1257,-1.126,-1.1253,-1.1251,-1.1254,-1.1248,-1.125,-1.1245,-1.1247,-1.1247,-1.1239,-1.1239,-1.1231,-1.123,-1.1226,-1.1232,-1.1228,-1.1233,-1.1232,-1.124,-1.124,-1.1264,-1.1267,-1.124,-1.1241,-1.1241,0,-1.1275,-1.1277,-1.1271,-1.1271,-1.1269,-1.1269,-1.1268,-1.126,-1.126,-1.1255,-1.1258,-1.1257,-1.1256,-1.1256,-1.1251,-1.1249,-1.1246,-1.1255,-1.1246,-1.1249,-1.1247,-1.1247,-1.1248,-1.1257,-1.1257,-1.1257,-1.1258,0,-1.1295,-1.1291,-1.1291,-1.1289,-1.1289,-1.1287,-1.1285,-1.1285,-1.1276,-1.1276,-1.1276,-1.1276,-1.1274,-1.1274,-1.1271,-1.1268,-1.1262,-1.126,-1.1262,-1.1265,-1.1268,-1.1267,-1.1239,-1.126,-1.126,-1.1259,-1.1259,-1.1259,-1.1311,-1.1313,-1.1309,-1.1309,-1.1306,-1.1305,-1.1306,-1.1301,-1.1301,-1.1299,-1.1294,-1.1295,-1.1291,-1.1288,-1.1286,-1.1286,-1.1282,-1.1284,-1.1285,-1.1286,-1.1288,-1.1267,-1.1286,-1.1286,-1.1286,-1.1285,-1.1285,0,-1.1331,-1.1328,-1.1328,-1.1325,-1.1326,-1.1319,-1.1316,-1.1317,-1.1318,-1.1315,-1.1314,-1.1314,-1.1314,-1.1308,-1.1307,-1.1309,-1.1306,-1.1309,-1.1309,-1.1309,-1.1291,-1.129,-1.1312,-1.1312,-1.1312,-1.1312,-1.1312,-1.1312,-1.1342,-1.1346,-1.1342,-1.1344,-1.1341,-1.1342,-1.1341,-1.134,-1.1337,-1.1338,-1.1338,-1.1334,-1.133,-1.1329,-1.1328,-1.1327,-1.1327,-1.1331,-1.1329,-1.1312,-1.131,-1.1308,-1.1307,-1.1331,-1.1331,-1.1347,-1.1347,-1.1347]}]]